DW3310 Weather Reports


Display with metric or nautical units.
time (UTC)temp
F
wind
direction
speed
MPH
gust
MPH
rain 1hr
in
rain 24hr
in
rain mn
in
humidity
%
barometer
mb
20260901063046 62 57 2.0 3.0 0.00 0.00 0.00 63 1018.2
20260901061529 63 55 0.0 2.0 0.00 0.00 0.00 62 1018.2
20260901060026 64 55 2.0 4.0 0.00 0.00 0.00 53 1018.2
20260901054523 64 55 2.0 4.0 0.00 0.00 0.00 61 1018.3
20260901053021 64 52 3.0 4.0 0.00 0.00 0.00 62 1018.3
20260901051522 64 348 1.0 3.0 0.00 0.00 0.00 61 1018.5
20260901050020 64 348 2.0 4.0 0.00 0.00 0.00 58 1018.6
20260901044524 65 341 0.0 2.0 0.00 0.00 0.00 59 1018.3
20260901043016 65 338 1.0 4.0 0.00 0.00 0.00 59 1018.3
20260901041525 65 329 0.0 4.0 0.00 0.00 0.00 59 1018.2
20260901040012 65 302 1.0 2.0 0.00 0.00 0.00 58 1018.3
20260901034521 65 302 0.0 3.0 0.00 0.00 0.00 62 1018.3
20260901033006 66 300 0.0 0.0 0.00 0.00 0.00 63 1018.3
20260901031507 66 300 0.0 1.0 0.00 0.00 0.00 62 1018.2
20260901030004 67 300 0.0 2.0 0.00 0.00 0.00 62 1018.3
20260901024504 67 300 1.0 3.0 0.00 0.00 0.00 61 1018.3
20260901023003 67 299 0.0 2.0 0.00 0.00 0.00 61 1018.3
20260901021503 67 299 0.0 2.0 0.00 0.00 0.00 60 1018.2
20260901014601 67 298 1.0 2.0 0.00 0.04 0.00 60 1018.2
20260901013119 67 298 0.0 1.0 0.00 0.04 0.00 60 1018.3
20260901011559 67 298 0.0 3.0 0.00 0.04 0.00 60 1018.3
20260901010101 67 298 1.0 2.0 0.00 0.04 0.00 60 1018.5
20260901004552 67 298 1.0 3.0 0.00 0.09 0.00 59 1018.4
20260901003047 68 298 0.0 2.0 0.00 0.09 0.00 59 1018.3
20260901001543 68 298 1.0 3.0 0.00 0.09 0.00 58 1018.2
20260901000039 69 298 0.0 2.0 0.00 0.09 0.00 58 1018.2
20260831234537 69 298 0.0 2.0 0.00 0.09 0.00 56 1018.1
20260831233029 70 298 1.0 3.0 0.00 0.09 0.00 55 1018.2
20260831231525 71 298 2.0 4.0 0.00 0.09 0.00 54 1018.5
20260831230020 71 299 2.0 5.0 0.00 0.09 0.00 53 1018.7
20260831224516 72 301 3.0 8.0 0.00 0.09 0.00 51 1018.6
20260831223018 73 311 4.0 10.0 0.00 0.09 0.00 49 1018.5
20260831221511 74 319 5.0 9.0 0.00 0.09 0.00 47 1018.6
20260831220007 74 289 5.0 11.0 0.00 0.09 0.00 46 1018.6
20260831214502 74 304 4.0 10.0 0.00 0.09 0.00 44 1018.5
20260831213102 75 319 8.0 12.0 0.00 0.09 0.00 42 1018.4
20260831211553 75 304 6.0 11.0 0.00 0.09 0.00 41 1018.5
20260831210048 75 315 8.0 14.0 0.00 0.09 0.00 40 1018.6
20260831204548 75 300 8.0 14.0 0.00 0.09 0.00 43 1018.7
20260831203039 74 315 8.0 15.0 0.00 0.09 0.00 46 1018.7
20260831201535 76 281 9.0 17.0 0.00 0.09 0.00 44 1018.8
20260831200032 76 309 6.0 11.0 0.00 0.09 0.00 45 1018.9
20260831194529 75 340 4.0 11.0 0.00 0.09 0.00 45 1018.8
20260831193030 75 325 6.0 9.0 0.00 0.09 0.00 45 1019.1
20260831191516 75 263 6.0 10.0 0.00 0.09 0.00 44 1019.1
20260831190019 74 317 6.0 14.0 0.00 0.09 0.00 44 1019.3
20260831184509 74 300 5.0 12.0 0.00 0.09 0.00 46 1019.4
20260831183006 74 311 6.0 10.0 0.00 0.09 0.00 44 1019.6
20260831181611 73 313 6.0 13.0 0.00 0.09 0.00 43 1019.6
20260831180056 73 321 6.0 12.0 0.00 0.09 0.00 39 1019.7
20260831174549 74 327 5.0 10.0 0.00 0.09 0.00 42 1019.8
20260831173040 74 19 3.0 9.0 0.00 0.09 0.00 36 1019.9
20260831171535 74 346 2.0 9.0 0.00 0.09 0.00 41 1020.2
20260831170034 72 347 1.0 8.0 0.00 0.09 0.00 39 1020.3
20260831164526 72 5 2.0 5.0 0.00 0.09 0.00 43 1020.3
20260831163021 71 331 1.0 5.0 0.00 0.09 0.00 48 1020.4
20260831161529 71 312 4.0 6.0 0.00 0.09 0.00 48 1020.4
20260831160014 70 355 2.0 9.0 0.00 0.09 0.00 54 1020.7
20260831154507 68 43 1.0 4.0 0.00 0.09 0.00 54 1020.7
20260831153002 67 45 3.0 7.0 0.00 0.09 0.00 54 1020.6
20260831151558 67 21 3.0 8.0 0.00 0.09 0.00 57 1020.7
20260831144556 66 5 2.0 9.0 0.00 0.09 0.00 60 1021.0
20260831143045 64 331 1.0 6.0 0.00 0.09 0.00 63 1021.0
20260831141538 64 317 3.0 6.0 0.00 0.09 0.00 63 1021.1
20260831140035 63 341 3.0 8.0 0.00 0.09 0.00 63 1021.1
20260831134532 62 311 3.0 6.0 0.00 0.09 0.00 59 1021.1
20260831133025 61 323 3.0 6.0 0.00 0.09 0.00 58 1021.0
20260831131537 60 324 2.0 5.0 0.00 0.09 0.00 51 1021.0
20260831130020 60 311 2.0 9.0 0.00 0.09 0.00 46 1021.0
20260831124512 59 310 5.0 11.0 0.00 0.09 0.00 50 1020.8
20260831123007 58 329 6.0 11.0 0.00 0.09 0.00 44 1020.7
20260831121503 58 323 2.0 5.0 0.00 0.09 0.00 39 1020.8
20260831120059 57 320 3.0 6.0 0.00 0.09 0.00 34 1020.7
20260831114554 57 312 2.0 6.0 0.00 0.09 0.00 26 1020.5
20260831113050 57 286 4.0 8.0 0.00 0.09 0.00 29 1020.5
20260831111551 57 294 3.0 9.0 0.00 0.09 0.00 35 1020.5
20260831110041 57 261 3.0 8.0 0.00 0.09 0.00 42 1020.2
20260831104538 57 320 3.0 10.0 0.00 0.09 0.00 41 1020.2
20260831103031 56 320 5.0 10.0 0.00 0.09 0.00 36 1020.1
20260831101527 56 256 4.0 9.0 0.00 0.09 0.00 30 1020.0
20260831100027 56 287 3.0 7.0 0.00 0.09 0.00 29 1019.9
20260831094531 56 292 4.0 10.0 0.00 0.09 0.00 28 1019.8
20260831093035 56 311 2.0 8.0 0.00 0.09 0.00 29 1019.6
20260831091509 56 289 2.0 5.0 0.00 0.09 0.00 35 1019.6
20260831090005 57 296 2.0 5.0 0.00 0.09 0.00 38 1019.4
20260831084600 57 289 1.0 5.0 0.00 0.09 0.00 40 1019.3
20260831083107 57 273 2.0 7.0 0.00 0.09 0.00 43 1019.1
20260831081558 58 289 2.0 5.0 0.00 0.09 0.00 47 1019.0
20260831080119 58 298 2.0 5.0 0.00 0.09 0.00 50 1019.0
20260831074543 59 296 1.0 5.0 0.00 0.09 0.00 52 1018.9
20260831073036 59 311 2.0 12.0 0.00 0.09 0.00 55 1018.7
20260831071542 59 5 4.0 10.0 0.00 0.09 0.00 54 1018.7
20260831070028 59 285 5.0 9.0 0.00 0.09 0.00 51 1018.6
20260831064522 59 329 3.0 8.0 0.00 0.09 0.00 51 1018.7